Year,Month,Day,Hour,Minute,Value (Times are PST for temperature in C)
2010,08,09,00,00,15.60
2010,08,09,00,01,15.60
2010,08,09,00,02,15.60
2010,08,09,00,03,15.60
2010,08,09,00,04,15.60
2010,08,09,00,05,15.60
2010,08,09,00,06,15.50
2010,08,09,00,07,15.50
2010,08,09,00,08,15.50
2010,08,09,00,09,15.50
2010,08,09,00,10,15.50
2010,08,09,00,11,15.50
2010,08,09,00,12,15.50
2010,08,09,00,13,15.50
2010,08,09,00,14,15.40
2010,08,09,00,15,15.40
2010,08,09,00,16,15.40
2010,08,09,00,17,15.40
2010,08,09,00,18,15.40
2010,08,09,00,19,15.40
2010,08,09,00,20,15.40
2010,08,09,00,21,15.40
2010,08,09,00,22,15.40
2010,08,09,00,23,15.40
2010,08,09,00,24,15.40
2010,08,09,00,25,15.40
2010,08,09,00,26,15.40
2010,08,09,00,27,15.40
2010,08,09,00,28,15.40
2010,08,09,00,29,15.40
2010,08,09,00,30,15.40
2010,08,09,00,31,15.40
2010,08,09,00,32,15.40
2010,08,09,00,33,15.40
2010,08,09,00,34,15.40
2010,08,09,00,35,15.40
2010,08,09,00,36,15.40
2010,08,09,00,37,15.40
2010,08,09,00,38,15.40
2010,08,09,00,39,15.40
2010,08,09,00,40,15.40
2010,08,09,00,41,15.40
2010,08,09,00,42,15.40
2010,08,09,00,43,15.40
2010,08,09,00,44,15.40
2010,08,09,00,45,15.40
2010,08,09,00,46,15.40
2010,08,09,00,47,15.40
2010,08,09,00,48,15.40
2010,08,09,00,49,15.40
2010,08,09,00,50,15.40
2010,08,09,00,51,15.40
2010,08,09,00,52,15.40
2010,08,09,00,53,15.40
2010,08,09,00,54,15.40
2010,08,09,00,55,15.40
2010,08,09,00,56,15.40
2010,08,09,00,57,15.40
2010,08,09,00,58,15.40
2010,08,09,00,59,15.40
2010,08,09,01,00,15.40
2010,08,09,01,01,15.40
2010,08,09,01,02,15.40
2010,08,09,01,03,15.40
2010,08,09,01,04,15.40
2010,08,09,01,05,15.40
2010,08,09,01,06,15.40
2010,08,09,01,07,15.40
2010,08,09,01,08,15.30
2010,08,09,01,09,15.30
2010,08,09,01,10,15.30
2010,08,09,01,11,15.30
2010,08,09,01,12,15.30
2010,08,09,01,13,15.30
2010,08,09,01,14,15.30
2010,08,09,01,15,15.30
2010,08,09,01,16,15.30
2010,08,09,01,17,15.30
2010,08,09,01,18,15.30
2010,08,09,01,19,15.30
2010,08,09,01,20,15.30
2010,08,09,01,21,15.30
2010,08,09,01,22,15.30
2010,08,09,01,23,15.30
2010,08,09,01,24,15.30
2010,08,09,01,25,15.30
2010,08,09,01,26,15.30
2010,08,09,01,27,15.30
2010,08,09,01,28,15.30
2010,08,09,01,29,15.20
2010,08,09,01,30,15.20
2010,08,09,01,31,15.20
2010,08,09,01,32,15.20
2010,08,09,01,33,15.20
2010,08,09,01,34,15.20
2010,08,09,01,35,15.20
2010,08,09,01,36,15.20
2010,08,09,01,37,15.20
2010,08,09,01,38,15.20
2010,08,09,01,39,15.20
2010,08,09,01,40,15.20
2010,08,09,01,41,15.20
2010,08,09,01,42,15.20
2010,08,09,01,43,15.20
2010,08,09,01,44,15.30
2010,08,09,01,45,15.30
2010,08,09,01,46,15.30
2010,08,09,01,47,15.30
2010,08,09,01,48,15.30
2010,08,09,01,49,15.30
2010,08,09,01,50,15.30
2010,08,09,01,51,15.30
2010,08,09,01,52,15.30
2010,08,09,01,53,15.30
2010,08,09,01,54,15.30
2010,08,09,01,55,15.30
2010,08,09,01,56,15.30
2010,08,09,01,57,15.30
2010,08,09,01,58,15.30
2010,08,09,01,59,15.30
2010,08,09,02,00,15.30
2010,08,09,02,01,15.30
2010,08,09,02,02,15.30
2010,08,09,02,03,15.30
2010,08,09,02,04,15.30
2010,08,09,02,05,15.30
2010,08,09,02,06,15.30
2010,08,09,02,07,15.30
2010,08,09,02,08,15.20
2010,08,09,02,09,15.20
2010,08,09,02,10,15.20
2010,08,09,02,11,15.20
2010,08,09,02,12,15.20
2010,08,09,02,13,15.20
2010,08,09,02,14,15.10
2010,08,09,02,15,15.10
2010,08,09,02,16,15.10
2010,08,09,02,17,15.10
2010,08,09,02,18,15.10
2010,08,09,02,19,15.10
2010,08,09,02,20,15.10
2010,08,09,02,21,15.10
2010,08,09,02,22,15.10
2010,08,09,02,23,15.10
2010,08,09,02,24,15.10
2010,08,09,02,25,15.10
2010,08,09,02,26,15.10
2010,08,09,02,27,15.10
2010,08,09,02,28,15.10
2010,08,09,02,29,15.10
2010,08,09,02,30,15.10
2010,08,09,02,31,15.10
2010,08,09,02,32,15.10
2010,08,09,02,33,15.10
2010,08,09,02,34,15.10
2010,08,09,02,35,15.10
2010,08,09,02,36,15.10
2010,08,09,02,37,15.10
2010,08,09,02,38,15.10
2010,08,09,02,39,15.10
2010,08,09,02,40,15.10
2010,08,09,02,41,15.10
2010,08,09,02,42,15.10
2010,08,09,02,43,15.10
2010,08,09,02,44,15.10
2010,08,09,02,45,15.10
2010,08,09,02,46,15.10
2010,08,09,02,47,15.10
2010,08,09,02,48,15.10
2010,08,09,02,49,15.10
2010,08,09,02,50,15.10
2010,08,09,02,51,15.20
2010,08,09,02,52,15.10
2010,08,09,02,53,15.20
2010,08,09,02,54,15.20
2010,08,09,02,55,15.20
2010,08,09,02,56,15.20
2010,08,09,02,57,15.20
2010,08,09,02,58,15.20
2010,08,09,02,59,15.20
2010,08,09,03,00,15.20
2010,08,09,03,01,15.20
2010,08,09,03,02,15.20
2010,08,09,03,03,15.20
2010,08,09,03,04,15.30
2010,08,09,03,05,15.30
2010,08,09,03,06,15.30
2010,08,09,03,07,15.30
2010,08,09,03,08,15.30
2010,08,09,03,09,15.30
2010,08,09,03,10,15.40
2010,08,09,03,11,15.40
2010,08,09,03,12,15.40
2010,08,09,03,13,15.40
2010,08,09,03,14,15.50
2010,08,09,03,15,15.50
2010,08,09,03,16,15.60
2010,08,09,03,17,15.60
2010,08,09,03,18,15.60
2010,08,09,03,19,15.70
2010,08,09,03,20,15.70
2010,08,09,03,21,15.70
2010,08,09,03,22,15.70
2010,08,09,03,23,15.70
2010,08,09,03,24,15.80
2010,08,09,03,25,15.80
2010,08,09,03,26,15.80
2010,08,09,03,27,15.80
2010,08,09,03,28,15.90
2010,08,09,03,29,15.90
2010,08,09,03,30,15.90
2010,08,09,03,31,15.90
2010,08,09,03,32,16.00
2010,08,09,03,33,16.00
2010,08,09,03,34,16.00
2010,08,09,03,35,16.00
2010,08,09,03,36,16.10
2010,08,09,03,37,16.10
2010,08,09,03,38,16.10
2010,08,09,03,39,16.10
2010,08,09,03,40,16.20
2010,08,09,03,41,16.20
2010,08,09,03,42,16.20
2010,08,09,03,43,16.30
2010,08,09,03,44,16.30
2010,08,09,03,45,16.30
2010,08,09,03,46,16.30
2010,08,09,03,47,16.30
2010,08,09,03,48,16.30
2010,08,09,03,49,16.40
2010,08,09,03,50,16.40
2010,08,09,03,51,16.40
2010,08,09,03,52,16.40
2010,08,09,03,53,16.40
2010,08,09,03,54,16.40
2010,08,09,03,55,16.40
2010,08,09,03,56,16.50
2010,08,09,03,57,16.50
2010,08,09,03,58,16.50
2010,08,09,03,59,16.50
2010,08,09,04,00,16.50
2010,08,09,04,01,16.60
2010,08,09,04,02,16.60
2010,08,09,04,03,16.50
2010,08,09,04,04,16.50
2010,08,09,04,05,16.50
2010,08,09,04,06,16.50
2010,08,09,04,07,16.50
2010,08,09,04,08,16.50
2010,08,09,04,09,16.50
2010,08,09,04,10,16.50
2010,08,09,04,11,16.40
2010,08,09,04,12,16.40
2010,08,09,04,13,16.40
2010,08,09,04,14,16.40
2010,08,09,04,15,16.40
2010,08,09,04,16,16.40
2010,08,09,04,17,16.40
2010,08,09,04,18,16.40
2010,08,09,04,19,16.30
2010,08,09,04,20,16.30
2010,08,09,04,21,16.30
2010,08,09,04,22,16.30
2010,08,09,04,23,16.30
2010,08,09,04,24,16.30
2010,08,09,04,25,16.30
2010,08,09,04,26,16.30
2010,08,09,04,27,16.30
2010,08,09,04,28,16.30
2010,08,09,04,29,16.30
2010,08,09,04,30,16.30
2010,08,09,04,31,16.30
2010,08,09,04,32,16.20
2010,08,09,04,33,16.20
2010,08,09,04,34,16.20
2010,08,09,04,35,16.20
2010,08,09,04,36,16.20
2010,08,09,04,37,16.20
2010,08,09,04,38,16.20
2010,08,09,04,39,16.20
2010,08,09,04,40,16.20
2010,08,09,04,41,16.20
2010,08,09,04,42,16.20
2010,08,09,04,43,16.20
2010,08,09,04,44,16.20
2010,08,09,04,45,16.20
2010,08,09,04,46,16.20
2010,08,09,04,47,16.20
2010,08,09,04,48,16.20
2010,08,09,04,49,16.10
2010,08,09,04,50,16.10
2010,08,09,04,51,16.10
2010,08,09,04,52,16.10
2010,08,09,04,53,16.10
2010,08,09,04,54,16.10
2010,08,09,04,55,16.10
2010,08,09,04,56,16.10
2010,08,09,04,57,16.10
2010,08,09,04,58,16.10
2010,08,09,04,59,16.10
2010,08,09,05,00,16.10
2010,08,09,05,01,16.10
2010,08,09,05,02,16.10
2010,08,09,05,03,16.00
2010,08,09,05,04,16.00
2010,08,09,05,05,16.00
2010,08,09,05,06,16.00
2010,08,09,05,07,16.00
2010,08,09,05,08,16.00
2010,08,09,05,09,16.00
2010,08,09,05,10,16.00
2010,08,09,05,11,16.00
2010,08,09,05,12,16.00
2010,08,09,05,13,16.00
2010,08,09,05,14,15.90
2010,08,09,05,15,15.90
2010,08,09,05,16,16.00
2010,08,09,05,17,15.90
2010,08,09,05,18,16.00
2010,08,09,05,19,16.00
2010,08,09,05,20,16.00
2010,08,09,05,21,16.00
2010,08,09,05,22,15.90
2010,08,09,05,23,15.90
2010,08,09,05,24,15.90
2010,08,09,05,25,15.90
2010,08,09,05,26,15.90
2010,08,09,05,27,15.90
2010,08,09,05,28,15.90
2010,08,09,05,29,15.90
2010,08,09,05,30,15.90
2010,08,09,05,31,15.90
2010,08,09,05,32,15.90
2010,08,09,05,33,15.90
2010,08,09,05,34,15.80
2010,08,09,05,35,15.80
2010,08,09,05,36,15.80
2010,08,09,05,37,15.80
2010,08,09,05,38,15.80
2010,08,09,05,39,15.80
2010,08,09,05,40,15.80
2010,08,09,05,41,15.80
2010,08,09,05,42,15.80
2010,08,09,05,43,15.80
2010,08,09,05,44,15.80
2010,08,09,05,45,15.80
2010,08,09,05,46,15.80
2010,08,09,05,47,15.80
2010,08,09,05,48,15.80
2010,08,09,05,49,15.70
2010,08,09,05,50,15.70
2010,08,09,05,51,15.70
2010,08,09,05,52,15.70
2010,08,09,05,53,15.70
2010,08,09,05,54,15.70
2010,08,09,05,55,15.70
2010,08,09,05,56,15.70
2010,08,09,05,57,15.70
2010,08,09,05,58,15.60
2010,08,09,05,59,15.60
2010,08,09,06,00,15.60
2010,08,09,06,01,15.60
2010,08,09,06,02,15.60
2010,08,09,06,03,15.60
2010,08,09,06,04,15.60
2010,08,09,06,05,15.60
2010,08,09,06,06,15.60
2010,08,09,06,07,15.60
2010,08,09,06,08,15.60
2010,08,09,06,09,15.60
2010,08,09,06,10,15.60
2010,08,09,06,11,15.60
2010,08,09,06,12,15.60
2010,08,09,06,13,15.60
2010,08,09,06,14,15.60
2010,08,09,06,15,15.60
2010,08,09,06,16,15.60
2010,08,09,06,17,15.60
2010,08,09,06,18,15.60
2010,08,09,06,19,15.60
2010,08,09,06,20,15.60
2010,08,09,06,21,15.60
2010,08,09,06,22,15.60
2010,08,09,06,23,15.60
2010,08,09,06,24,15.60
2010,08,09,06,25,15.60
2010,08,09,06,26,15.60
2010,08,09,06,27,15.60
2010,08,09,06,28,15.60
2010,08,09,06,29,15.60
2010,08,09,06,30,15.60
2010,08,09,06,31,15.60
2010,08,09,06,32,15.60
2010,08,09,06,33,15.60
2010,08,09,06,34,15.60
2010,08,09,06,35,15.70
2010,08,09,06,36,15.70
2010,08,09,06,37,15.70
2010,08,09,06,38,15.70
2010,08,09,06,39,15.70
2010,08,09,06,40,15.70
2010,08,09,06,41,15.70
2010,08,09,06,42,15.70
2010,08,09,06,43,15.70
2010,08,09,06,44,15.70
2010,08,09,06,45,15.70
2010,08,09,06,46,15.70
2010,08,09,06,47,15.80
2010,08,09,06,48,15.80
2010,08,09,06,49,15.80
2010,08,09,06,50,15.80
2010,08,09,06,51,15.80
2010,08,09,06,52,15.80
2010,08,09,06,53,15.80
2010,08,09,06,54,15.80
2010,08,09,06,55,15.80
2010,08,09,06,56,15.80
2010,08,09,06,57,15.80
2010,08,09,06,58,15.80
2010,08,09,06,59,15.80
2010,08,09,07,00,15.80
2010,08,09,07,01,15.80
2010,08,09,07,02,15.80
2010,08,09,07,03,15.80
2010,08,09,07,04,15.80
2010,08,09,07,05,15.80
2010,08,09,07,06,15.80
2010,08,09,07,07,15.80
2010,08,09,07,08,15.80
2010,08,09,07,09,15.80
2010,08,09,07,10,15.90
2010,08,09,07,11,15.90
2010,08,09,07,12,15.90
2010,08,09,07,13,15.90
2010,08,09,07,14,15.90
2010,08,09,07,15,15.90
2010,08,09,07,16,15.90
2010,08,09,07,17,15.90
2010,08,09,07,18,15.90
2010,08,09,07,19,15.90
2010,08,09,07,20,15.90
2010,08,09,07,21,15.90
2010,08,09,07,22,15.90
2010,08,09,07,23,15.90
2010,08,09,07,24,15.90
2010,08,09,07,25,15.90
2010,08,09,07,26,16.00
2010,08,09,07,27,16.00
2010,08,09,07,28,16.00
2010,08,09,07,29,16.00
2010,08,09,07,30,16.00
2010,08,09,07,31,16.00
2010,08,09,07,32,16.00
2010,08,09,07,33,16.00
2010,08,09,07,34,16.00
2010,08,09,07,35,16.00
2010,08,09,07,36,16.00
2010,08,09,07,37,16.10
2010,08,09,07,38,16.10
2010,08,09,07,39,16.10
2010,08,09,07,40,16.10
2010,08,09,07,41,16.10
2010,08,09,07,42,16.10
2010,08,09,07,43,16.10
2010,08,09,07,44,16.10
2010,08,09,07,45,16.10
2010,08,09,07,46,16.10
2010,08,09,07,47,16.10
2010,08,09,07,48,16.10
2010,08,09,07,49,16.10
2010,08,09,07,50,16.10
2010,08,09,07,51,16.20
2010,08,09,07,52,16.20
2010,08,09,07,53,16.20
2010,08,09,07,54,16.20
2010,08,09,07,55,16.20
2010,08,09,07,56,16.20
2010,08,09,07,57,16.20
2010,08,09,07,58,16.20
2010,08,09,07,59,16.20
2010,08,09,08,00,16.20
2010,08,09,08,01,16.20
2010,08,09,08,02,16.20
2010,08,09,08,03,16.30
2010,08,09,08,04,16.30
2010,08,09,08,05,16.30
2010,08,09,08,06,16.30
2010,08,09,08,07,16.30
2010,08,09,08,08,16.30
2010,08,09,08,09,16.30
2010,08,09,08,10,16.30
2010,08,09,08,11,16.30
2010,08,09,08,12,16.30
2010,08,09,08,13,16.30
2010,08,09,08,14,16.30
2010,08,09,08,15,16.30
2010,08,09,08,16,16.30
2010,08,09,08,17,16.30
2010,08,09,08,18,16.30
2010,08,09,08,19,16.30
2010,08,09,08,20,16.40
2010,08,09,08,21,16.40
2010,08,09,08,22,16.40
2010,08,09,08,23,16.40
2010,08,09,08,24,16.40
2010,08,09,08,25,16.40
2010,08,09,08,26,16.40
2010,08,09,08,27,16.40
2010,08,09,08,28,16.40
2010,08,09,08,29,16.40
2010,08,09,08,30,16.40
2010,08,09,08,31,16.40
2010,08,09,08,32,16.40
2010,08,09,08,33,16.40
2010,08,09,08,34,16.40
2010,08,09,08,35,16.40
2010,08,09,08,36,16.40
2010,08,09,08,37,16.40
2010,08,09,08,38,16.40
2010,08,09,08,39,16.40
2010,08,09,08,40,16.40
2010,08,09,08,41,16.40
2010,08,09,08,42,16.40
2010,08,09,08,43,16.40
2010,08,09,08,44,16.40
2010,08,09,08,45,16.40
2010,08,09,08,46,16.40
2010,08,09,08,47,16.40
2010,08,09,08,48,16.40
2010,08,09,08,49,16.40
2010,08,09,08,50,16.40
2010,08,09,08,51,16.40
2010,08,09,08,52,16.40
2010,08,09,08,53,16.30
2010,08,09,08,54,16.30
2010,08,09,08,55,16.30
2010,08,09,08,56,16.30
2010,08,09,08,57,16.30
2010,08,09,08,58,16.30
2010,08,09,08,59,16.30
2010,08,09,09,00,16.30
2010,08,09,09,01,16.30
2010,08,09,09,02,16.30
2010,08,09,09,03,16.30
2010,08,09,09,04,16.30
2010,08,09,09,05,16.30
2010,08,09,09,06,16.20
2010,08,09,09,07,16.20
2010,08,09,09,08,16.20
2010,08,09,09,09,16.20
2010,08,09,09,10,16.20
2010,08,09,09,11,16.20
2010,08,09,09,12,16.20
2010,08,09,09,13,16.20
2010,08,09,09,14,16.20
2010,08,09,09,15,16.20
2010,08,09,09,16,16.20
2010,08,09,09,17,16.20
2010,08,09,09,18,16.20
2010,08,09,09,19,16.20
2010,08,09,09,20,16.20
2010,08,09,09,21,16.20
2010,08,09,09,22,16.20
2010,08,09,09,23,16.20
2010,08,09,09,24,16.20
2010,08,09,09,25,16.20
2010,08,09,09,26,16.20
2010,08,09,09,27,16.20
2010,08,09,09,28,16.20
2010,08,09,09,29,16.20
2010,08,09,09,30,16.20
2010,08,09,09,31,16.20
2010,08,09,09,32,16.20
2010,08,09,09,33,16.20
2010,08,09,09,34,16.20
2010,08,09,09,35,16.20
2010,08,09,09,36,16.20
2010,08,09,09,37,16.20
2010,08,09,09,38,16.20
2010,08,09,09,39,16.20
2010,08,09,09,40,16.20
2010,08,09,09,41,16.20
2010,08,09,09,42,16.20
2010,08,09,09,43,16.20
2010,08,09,09,44,16.20
2010,08,09,09,45,16.20
2010,08,09,09,46,16.20
2010,08,09,09,47,16.20
2010,08,09,09,48,16.20
2010,08,09,09,49,16.20
2010,08,09,09,50,16.20
2010,08,09,09,51,16.20
2010,08,09,09,52,16.20
2010,08,09,09,53,16.20
2010,08,09,09,54,16.20
2010,08,09,09,55,16.20
2010,08,09,09,56,16.20
2010,08,09,09,57,16.20
2010,08,09,09,58,16.20
2010,08,09,09,59,16.20
2010,08,09,10,00,16.20
2010,08,09,10,01,16.30
2010,08,09,10,02,16.30
2010,08,09,10,03,16.30
2010,08,09,10,04,16.30
2010,08,09,10,05,16.30
2010,08,09,10,06,16.30
2010,08,09,10,07,16.30
2010,08,09,10,08,16.30
2010,08,09,10,09,16.30
2010,08,09,10,10,16.30
2010,08,09,10,11,16.30
2010,08,09,10,12,16.30
2010,08,09,10,13,16.30
2010,08,09,10,14,16.30
2010,08,09,10,15,16.30
2010,08,09,10,16,16.30
2010,08,09,10,17,16.30
2010,08,09,10,18,16.30
2010,08,09,10,19,16.30
2010,08,09,10,20,16.30
2010,08,09,10,21,16.30
2010,08,09,10,22,16.30
2010,08,09,10,23,16.30
2010,08,09,10,24,16.30
2010,08,09,10,25,16.30
2010,08,09,10,26,16.30
2010,08,09,10,27,16.30
2010,08,09,10,28,16.30
2010,08,09,10,29,16.30
2010,08,09,10,30,16.30
2010,08,09,10,31,16.30
2010,08,09,10,32,16.30
2010,08,09,10,33,16.30
2010,08,09,10,34,16.30
2010,08,09,10,35,16.20
2010,08,09,10,36,16.20
2010,08,09,10,37,16.20
2010,08,09,10,38,16.20
2010,08,09,10,39,16.20
2010,08,09,10,40,16.20
2010,08,09,10,41,16.20
2010,08,09,10,42,16.20
2010,08,09,10,43,16.20
2010,08,09,10,44,16.20
2010,08,09,10,45,16.20
2010,08,09,10,46,16.20
2010,08,09,10,47,16.20
2010,08,09,10,48,16.20
2010,08,09,10,49,16.20
2010,08,09,10,50,16.20
2010,08,09,10,51,16.20
2010,08,09,10,52,16.10
2010,08,09,10,53,16.10
2010,08,09,10,54,16.10
2010,08,09,10,55,16.00
2010,08,09,10,56,15.90
2010,08,09,10,57,15.90
2010,08,09,10,58,15.80
2010,08,09,10,59,15.80
2010,08,09,11,00,15.80
2010,08,09,11,01,15.70
2010,08,09,11,02,15.70
2010,08,09,11,03,15.70
2010,08,09,11,04,15.60
2010,08,09,11,05,15.60
2010,08,09,11,06,15.60
2010,08,09,11,07,15.60
2010,08,09,11,08,15.60
2010,08,09,11,09,15.60
2010,08,09,11,10,15.60
2010,08,09,11,11,15.50
2010,08,09,11,12,15.60
2010,08,09,11,13,15.60
2010,08,09,11,14,15.60
2010,08,09,11,15,15.60
2010,08,09,11,16,15.60
2010,08,09,11,17,15.60
2010,08,09,11,18,15.60
2010,08,09,11,19,15.70
2010,08,09,11,20,15.70
2010,08,09,11,21,15.70
2010,08,09,11,22,15.70
2010,08,09,11,23,15.80
2010,08,09,11,24,15.80
2010,08,09,11,25,15.80
2010,08,09,11,26,15.90
2010,08,09,11,27,15.90
2010,08,09,11,28,16.00
2010,08,09,11,29,16.00
2010,08,09,11,30,16.10
2010,08,09,11,31,16.10
2010,08,09,11,32,16.10
2010,08,09,11,33,16.20
2010,08,09,11,34,16.20
2010,08,09,11,35,16.20
2010,08,09,11,36,16.20
2010,08,09,11,37,16.20
2010,08,09,11,38,16.20
2010,08,09,11,39,16.20
2010,08,09,11,40,16.20
2010,08,09,11,41,16.20
2010,08,09,11,42,16.20
2010,08,09,11,43,16.20
2010,08,09,11,44,16.20
2010,08,09,11,45,16.20
2010,08,09,11,46,16.10
2010,08,09,11,47,16.10
2010,08,09,11,48,16.10
2010,08,09,11,49,16.10
2010,08,09,11,50,16.10
2010,08,09,11,51,16.10
2010,08,09,11,52,16.10
2010,08,09,11,53,16.10
2010,08,09,11,54,16.10
2010,08,09,11,55,16.10
2010,08,09,11,56,16.10
2010,08,09,11,57,16.10
2010,08,09,11,58,16.10
2010,08,09,11,59,16.10
2010,08,09,12,00,16.10
2010,08,09,12,01,16.10
2010,08,09,12,02,16.10
2010,08,09,12,03,16.10
2010,08,09,12,04,16.10
2010,08,09,12,05,16.10
2010,08,09,12,06,16.10
2010,08,09,12,07,16.10
2010,08,09,12,08,16.10
2010,08,09,12,09,16.10
2010,08,09,12,10,16.10
2010,08,09,12,11,16.20
2010,08,09,12,12,16.20
2010,08,09,12,13,16.20
2010,08,09,12,14,16.20
2010,08,09,12,15,16.30
2010,08,09,12,16,16.30
2010,08,09,12,17,16.30
2010,08,09,12,18,16.30
2010,08,09,12,19,16.30
2010,08,09,12,20,16.40
2010,08,09,12,21,16.40
2010,08,09,12,22,16.40
2010,08,09,12,23,16.40
2010,08,09,12,24,16.50
2010,08,09,12,25,16.50
2010,08,09,12,26,16.50
2010,08,09,12,27,16.50
2010,08,09,12,28,16.50
2010,08,09,12,29,16.50
2010,08,09,12,30,16.50
2010,08,09,12,31,16.60
2010,08,09,12,32,16.60
2010,08,09,12,33,16.60
2010,08,09,12,34,16.60
2010,08,09,12,35,16.60
2010,08,09,12,36,16.60
2010,08,09,12,37,16.70
2010,08,09,12,38,16.70
2010,08,09,12,39,16.80
2010,08,09,12,40,16.90
2010,08,09,12,41,17.00
2010,08,09,12,42,17.00
2010,08,09,12,43,17.10
2010,08,09,12,44,17.20
2010,08,09,12,45,17.20
2010,08,09,12,46,17.30
2010,08,09,12,47,17.30
2010,08,09,12,48,17.40
2010,08,09,12,49,17.50
2010,08,09,12,50,17.50
2010,08,09,12,51,17.60
2010,08,09,12,52,17.70
2010,08,09,12,53,17.70
2010,08,09,12,54,17.80
2010,08,09,12,55,17.80
2010,08,09,12,56,17.80
2010,08,09,12,57,17.90
2010,08,09,12,58,17.90
2010,08,09,12,59,17.90
2010,08,09,13,00,17.90
2010,08,09,13,01,17.90
2010,08,09,13,02,17.90
2010,08,09,13,03,18.00
2010,08,09,13,04,18.00
2010,08,09,13,05,18.00
2010,08,09,13,06,18.00
2010,08,09,13,07,18.00
2010,08,09,13,08,18.00
2010,08,09,13,09,18.00
2010,08,09,13,10,18.00
2010,08,09,13,11,18.00
2010,08,09,13,12,18.00
2010,08,09,13,13,18.00
2010,08,09,13,14,18.00
2010,08,09,13,15,18.00
2010,08,09,13,16,18.00
2010,08,09,13,17,18.00
2010,08,09,13,18,18.10
2010,08,09,13,19,18.10
2010,08,09,13,20,18.10
2010,08,09,13,21,18.20
2010,08,09,13,22,18.20
2010,08,09,13,23,18.20
2010,08,09,13,24,18.30
2010,08,09,13,25,18.30
2010,08,09,13,26,18.40
2010,08,09,13,27,18.50
2010,08,09,13,28,18.50
2010,08,09,13,29,18.50
2010,08,09,13,30,18.50
2010,08,09,13,31,18.50
2010,08,09,13,32,18.50
2010,08,09,13,33,18.50
2010,08,09,13,34,18.40
2010,08,09,13,35,18.40
2010,08,09,13,36,18.40
2010,08,09,13,37,18.40
2010,08,09,13,38,18.30
2010,08,09,13,39,18.30
2010,08,09,13,40,18.30
2010,08,09,13,41,18.40
2010,08,09,13,42,18.40
2010,08,09,13,43,18.40
2010,08,09,13,44,18.50
2010,08,09,13,45,18.50
2010,08,09,13,46,18.50
2010,08,09,13,47,18.60
2010,08,09,13,48,18.60
2010,08,09,13,49,18.70
2010,08,09,13,50,18.70
2010,08,09,13,51,18.80
2010,08,09,13,52,18.80
2010,08,09,13,53,18.80
2010,08,09,13,54,18.90
2010,08,09,13,55,19.00
2010,08,09,13,56,19.00
2010,08,09,13,57,19.10
2010,08,09,13,58,19.20
2010,08,09,13,59,19.20
2010,08,09,14,00,19.30
2010,08,09,14,01,19.40
2010,08,09,14,02,19.50
2010,08,09,14,03,19.50
2010,08,09,14,04,19.60
2010,08,09,14,05,19.60
2010,08,09,14,06,19.60
2010,08,09,14,07,19.60
2010,08,09,14,08,19.70
2010,08,09,14,09,19.70
2010,08,09,14,10,19.70
2010,08,09,14,11,19.70
2010,08,09,14,12,19.80
2010,08,09,14,13,19.80
2010,08,09,14,14,19.80
2010,08,09,14,15,19.80
2010,08,09,14,16,19.80
2010,08,09,14,17,19.80
2010,08,09,14,18,19.80
2010,08,09,14,19,19.90
2010,08,09,14,20,19.90
2010,08,09,14,21,20.00
2010,08,09,14,22,20.00
2010,08,09,14,23,20.00
2010,08,09,14,24,20.10
2010,08,09,14,25,20.10
2010,08,09,14,26,20.20
2010,08,09,14,27,20.20
2010,08,09,14,28,20.20
2010,08,09,14,29,20.20
2010,08,09,14,30,20.20
2010,08,09,14,31,20.20
2010,08,09,14,32,20.20
2010,08,09,14,33,20.20
2010,08,09,14,34,20.20
2010,08,09,14,35,20.10
2010,08,09,14,36,20.00
2010,08,09,14,37,20.00
2010,08,09,14,38,19.90
2010,08,09,14,39,19.90
2010,08,09,14,40,19.90
2010,08,09,14,41,19.80
2010,08,09,14,42,19.80
2010,08,09,14,43,19.80
2010,08,09,14,44,19.80
2010,08,09,14,45,19.80
2010,08,09,14,46,19.90
2010,08,09,14,47,20.00
2010,08,09,14,48,20.10
2010,08,09,14,49,20.20
2010,08,09,14,50,20.30
2010,08,09,14,51,20.40
2010,08,09,14,52,20.40
2010,08,09,14,53,20.50
2010,08,09,14,54,20.60
2010,08,09,14,55,20.60
2010,08,09,14,56,20.70
2010,08,09,14,57,20.70
2010,08,09,14,58,20.70
2010,08,09,14,59,20.70
2010,08,09,15,00,20.70
2010,08,09,15,01,20.70
2010,08,09,15,02,20.70
2010,08,09,15,03,20.60
2010,08,09,15,04,20.60
2010,08,09,15,05,20.60
2010,08,09,15,06,20.70
2010,08,09,15,07,20.80
2010,08,09,15,08,20.80
2010,08,09,15,09,20.80
2010,08,09,15,10,20.80
2010,08,09,15,11,20.70
2010,08,09,15,12,20.70
2010,08,09,15,13,20.70
2010,08,09,15,14,20.70
2010,08,09,15,15,20.60
2010,08,09,15,16,20.60
2010,08,09,15,17,20.50
2010,08,09,15,18,20.40
2010,08,09,15,19,20.40
2010,08,09,15,20,20.30
2010,08,09,15,21,20.30
2010,08,09,15,22,20.30
2010,08,09,15,23,20.40
2010,08,09,15,24,20.40
2010,08,09,15,25,20.40
2010,08,09,15,26,20.40
2010,08,09,15,27,20.40
2010,08,09,15,28,20.40
2010,08,09,15,29,20.40
2010,08,09,15,30,20.40
2010,08,09,15,31,20.40
2010,08,09,15,32,20.40
2010,08,09,15,33,20.40
2010,08,09,15,34,20.40
2010,08,09,15,35,20.50
2010,08,09,15,36,20.50
2010,08,09,15,37,20.50
2010,08,09,15,38,20.60
2010,08,09,15,39,20.70
2010,08,09,15,40,20.70
2010,08,09,15,41,20.70
2010,08,09,15,42,20.80
2010,08,09,15,43,20.70
2010,08,09,15,44,20.70
2010,08,09,15,45,20.80
2010,08,09,15,46,20.80
2010,08,09,15,47,20.80
2010,08,09,15,48,20.80
2010,08,09,15,49,20.80
2010,08,09,15,50,20.70
2010,08,09,15,51,20.80
2010,08,09,15,52,20.80
2010,08,09,15,53,20.80
2010,08,09,15,54,20.80
2010,08,09,15,55,20.80
2010,08,09,15,56,20.80
2010,08,09,15,57,20.90
2010,08,09,15,58,20.90
2010,08,09,15,59,21.00
2010,08,09,16,00,21.00
2010,08,09,16,01,21.10
2010,08,09,16,02,21.10
2010,08,09,16,03,21.10
2010,08,09,16,04,21.10
2010,08,09,16,05,21.10
2010,08,09,16,06,21.20
2010,08,09,16,07,21.20
2010,08,09,16,08,21.30
2010,08,09,16,09,21.30
2010,08,09,16,10,21.40
2010,08,09,16,11,21.40
2010,08,09,16,12,21.50
2010,08,09,16,13,21.50
2010,08,09,16,14,21.60
2010,08,09,16,15,21.60
2010,08,09,16,16,21.60
2010,08,09,16,17,21.60
2010,08,09,16,18,21.60
2010,08,09,16,19,21.70
2010,08,09,16,20,21.70
2010,08,09,16,21,21.70
2010,08,09,16,22,21.70
2010,08,09,16,23,21.60
2010,08,09,16,24,21.60
2010,08,09,16,25,21.60
2010,08,09,16,26,21.60
2010,08,09,16,27,21.60
2010,08,09,16,28,21.60
2010,08,09,16,29,21.70
2010,08,09,16,30,21.70
2010,08,09,16,31,21.70
2010,08,09,16,32,21.80
2010,08,09,16,33,21.80
2010,08,09,16,34,21.80
2010,08,09,16,35,21.80
2010,08,09,16,36,21.80
2010,08,09,16,37,21.80
2010,08,09,16,38,21.80
2010,08,09,16,39,21.80
2010,08,09,16,40,21.80
2010,08,09,16,41,21.70
2010,08,09,16,42,21.70
2010,08,09,16,43,21.60
2010,08,09,16,44,21.50
2010,08,09,16,45,21.50
2010,08,09,16,46,21.40
2010,08,09,16,47,21.40
2010,08,09,16,48,21.30
2010,08,09,16,49,21.30
2010,08,09,16,50,21.20
2010,08,09,16,51,21.20
2010,08,09,16,52,21.10
2010,08,09,16,53,21.10
2010,08,09,16,54,21.10
2010,08,09,16,55,21.00
2010,08,09,16,56,21.00
2010,08,09,16,57,21.00
2010,08,09,16,58,21.00
2010,08,09,16,59,21.00
2010,08,09,17,00,21.00
2010,08,09,17,01,21.00
2010,08,09,17,02,20.90
2010,08,09,17,03,20.80
2010,08,09,17,04,20.60
2010,08,09,17,05,20.40
2010,08,09,17,06,20.30
2010,08,09,17,07,20.20
2010,08,09,17,08,20.20
2010,08,09,17,09,20.10
2010,08,09,17,10,20.00
2010,08,09,17,11,19.90
2010,08,09,17,12,19.80
2010,08,09,17,13,19.80
2010,08,09,17,14,19.70
2010,08,09,17,15,19.70
2010,08,09,17,16,19.80
2010,08,09,17,17,19.80
2010,08,09,17,18,19.90
2010,08,09,17,19,19.90